Regional Weather Roundup
Issued by NWS

Home | Current Version | Previous Version | Text Only | Print | Product List | Glossary Off
Versions: 1 2 3 4 5 6 7 8 9 10 11 12 13 14 15 16 17 18 19 20 21 22 23 24 25 26 27 28 29 30 31 32 33 34 35 36 37 38 39 40 41 42 43 44 45 46 47 48 49 50

000
ASUS43 KDMX 180701
RWRIA

WEATHER ROUNDUP FOR IOWA
NATIONAL WEATHER SERVICE DES MOINES IA
200 AM CDT WED OCT 18 2017

NOTE: "FAIR" INDICATES FEW OR NO CLOUDS BELOW 12,000 FEET WITH NO
SIGNIFICANT WEATHER AND/OR OBSTRUCTIONS TO VISIBILITY.

* - THESE STATIONS ARE NOT NWS STATIONS...THUS NOT UNDER NWS
QUALITY CONTROL.  THEY ALSO DO NOT REPORT WEATHER SUCH
AS PRECIPITATION OR FOG.

IAZ001>003-012>014-020>022-031>034-043>046-180800-
   NORTHWEST IOWA

CITY           SKY/WX    TMP DP  RH WIND       PRES   REMARKS
CARROLL *      CLEAR     57  52  82 SW10      29.95F
CHEROKEE *     CLEAR     44  44 100 CALM      29.92F
DENISON *      CLEAR     52  46  82 VRB3      29.96F
LE MARS *      CLEAR     50  45  81 S6        29.89F
ORANGE CITY *  CLEAR     52  46  82 S5        29.90F
SHELDON *      CLEAR     48  45  87 S5        29.88F
SIOUX CITY     CLEAR     46  44  93 SE9       29.91F
SPENCER        CLEAR     47  42  83 S3        29.91F
STORM LAKE *   CLEAR     48  45  87 S9        29.93F
$$

IAZ055>058-069>071-079>083-090>094-180800-
   SOUTHWEST IOWA

CITY           SKY/WX    TMP DP  RH WIND       PRES   REMARKS
ATLANTIC *     CLEAR     48  46  93 S6        29.98F
AUDUBON *      CLEAR     52  46  82 S6        29.98F
CLARINDA *     CLEAR     50  46  87 S6        30.03F
COUNCIL BLFS * CLEAR     57  48  72 S13       29.96F
CRESTON *      CLEAR     52  46  82 S13       30.03F
HARLAN  *      CLEAR     46  45  93 CALM      30.00F
LAMONI         CLEAR     55  46  71 S13       30.05S
RED OAK *      CLEAR     50  46  87 S6        29.99F
SHENANDOAH *   CLEAR     54  46  76 SW6       30.00F
$$

IAZ047>049-059>061-072>074-084-180800-
   CENTRAL IOWA

CITY           SKY/WX    TMP DP  RH WIND       PRES   REMARKS
AMES           CLEAR     53  48  83 S8        29.99F
ANKENY *       CLEAR     55  46  71 S10       30.02S
BOONE *        CLEAR     55  46  71 S9G16     29.98F
CHARITON *     CLEAR     54  46  76 S10       30.04F
DES MOINES     CLEAR     55  46  71 S12       30.01F
GRINNELL*      CLEAR     51  44  77 S7        30.05S
KNOXVILLE *    CLEAR     54  45  71 S10       30.02F
MARSHALLTOWN   CLEAR     54  46  74 S10       30.00F
NEWTON *       CLEAR     54  46  76 S10       30.02F
PELLA *        CLEAR     54  45  72 S7        30.05S
PERRY *          N/A     50  47  90 S7        29.99S
$$

IAZ004>006-015-016-023>025-035-036-180800-
   NORTH CENTRAL IOWA

CITY           SKY/WX    TMP DP  RH WIND       PRES   REMARKS
ALGONA *       CLEAR     50  46  87 S9        29.94F
CLARION *      CLEAR     52  46  82 S10       29.96F
ESTHERVILLE    CLEAR     46  44  93 S8        29.91F
FORT DODGE *   CLEAR     52  45  77 S7        29.96F
MASON CITY     CLEAR     46  42  86 S8        29.98F
FOREST CITY *    N/A     46  43  87 S7        29.95F
WEBSTER CITY * CLEAR     50  45  81 VRB7      29.95F
IOWA FALLS *     N/A     53  46  77 S8        30.00F
$$

IAZ007>011-017>019-026>030-037>042-050>054-066-180800-
   NORTHEAST IOWA

CITY           SKY/WX    TMP DP  RH WIND       PRES   REMARKS
CEDAR RAPIDS   CLEAR     50  43  77 S7        30.06S
CHARLES CITY * CLEAR     50  46  87 S7        30.00F
CLINTON *      CLEAR     48  42  80 S8        30.10F
DECORAH *      CLEAR     55  45  67 S8        30.00S
DUBUQUE        CLEAR     48  42  80 S9        30.07S
MONTICELLO *   CLEAR     50  43  76 CALM      30.06F
OELWEIN *      CLEAR     50  45  81 S10       30.03F
WATERLOO       CLEAR     50  44  80 S7        30.01F
$$

IAZ064-065-067-068-078-180800-
   EAST CENTRAL IOWA

CITY           SKY/WX    TMP DP  RH WIND       PRES   REMARKS
DAVENPORT      CLEAR     52  41  66 S8        30.11F
IOWA CITY      CLEAR     52  43  71 S3        30.09S
MUSCATINE *    CLEAR     52  43  71 S8        30.09F
QUAD CITIES    CLEAR     54  41  61 S8        30.10S
$$

IAZ062-063-075>077-085>089-095>099-180800-
   SOUTHEAST IOWA

CITY           SKY/WX    TMP DP  RH WIND       PRES   REMARKS
BURLINGTON     CLEAR     53  43  68 S9        30.11F
FAIRFIELD *    CLEAR     52  43  71 S7        30.08S
FORT MADISON * CLEAR     54  45  71 S9        30.12S
KEOKUK *       CLEAR     55  43  62 S9        30.11S
OSKALOOSA *      N/A     47  43  86 S8        30.06F
OTTUMWA        CLEAR     52  44  74 S9        30.06S
WASHINGTON *   CLEAR     50  45  81 S9        30.09S
$$

ABBREVIATIONS USED IN REMARKS
   TC - TEMPERATURES IN CELSIUS
  WCI - WIND CHILL INDEX
   HX - HEAT INDEX
  VSB - VISIBILITY
$$




USA.gov is the U.S. government's official web portal to all federal, state and local government web resources and services.